This demonstration page uses our WeatherBlox Daily Observations layout. Learn more.

Left ArrowRight Arrow

Hourly Observations for May 29, 2017

Temp ( °F °C ) Dew Point ( °F °C ) Humidity (%) Winds ( mph kmh ) Pressure ( in mb ) Visibility ( mi km ) Precip ( " mm )
12:15 am 00:15 Clear 59 14.9 48 8.7 67 67 NNW 7 11 30.00 1016 10 16 N/A
12:35 am 00:35 Clear 58 14.2 47 8.2 67 67 NNW 8 13 30.00 1016 10 16 N/A
12:55 am 00:55 Clear 56 13.1 47 8.5 74 74 NW 7 11 30.00 1016 10 16 N/A
1:15 am 01:15 Clear 56 13.2 47 8.3 72 72 WNW 6 9 30.00 1016 10 16 N/A
1:35 am 01:35 Clear 55 13 47 8.2 73 73 WNW 6 9 30.00 1016 10 16 N/A
1:55 am 01:55 Clear 55 13 46 7.6 70 70 WNW 7 11 30.00 1016 10 16 N/A
2:15 am 02:15 Clear 53 11.6 47 8.1 79 79 WNW 6 9 30.03 1017 10 16 N/A
2:35 am 02:35 Clear 53 11.9 46 8 77 77 W 6 9 30.03 1017 10 16 N/A
2:55 am 02:55 Clear 52 11.2 46 8 81 81 W 6 9 30.03 1017 10 16 N/A
3:15 am 03:15 Clear 54 12 46 7.5 74 74 W 8 13 30.03 1017 10 16 N/A
3:35 am 03:35 Clear 51 10.8 46 7.5 80 80 WSW 7 11 30.06 1018 10 16 N/A
3:55 am 03:55 Clear 52 11 45 7.2 78 78 W 7 11 30.03 1017 10 16 N/A
4:15 am 04:15 Clear 52 11.1 45 7 76 76 W 8 13 30.03 1017 10 16 N/A
4:35 am 04:35 Clear 52 11 45 7.2 78 78 W 12 19 30.06 1018 10 16 N/A
4:55 am 04:55 Clear 51 10.8 45 7.2 79 79 W 9 15 30.06 1018 10 16 N/A
5:15 am 05:15 Clear 51 10.8 45 7.1 78 78 WNW 8 13 30.06 1018 10 16 N/A
5:35 am 05:35 Clear 50 10.2 45 7.1 81 81 W 8 13 30.06 1018 10 16 N/A
5:55 am 05:55 Clear 51 10.3 45 7.1 81 81 W 7 11 30.06 1018 10 16 N/A
6:15 am 06:15 Sunny 50 10.1 45 7.1 82 82 WNW 6 9 30.06 1018 10 16 N/A
6:35 am 06:35 Sunny 50 10.1 45 7 81 81 WNW 6 9 30.06 1018 10 16 N/A
6:55 am 06:55 Partly Cloudy 50 10.1 45 7.1 82 82 WNW 5 7 30.09 1019 10 16 N/A
7:15 am 07:15 Partly Cloudy 52 11.2 46 7.7 79 79 NW 9 15 30.06 1018 10 16 N/A
7:35 am 07:35 Partly Cloudy 54 12.3 47 8.6 78 78 NW 8 13 30.06 1018 10 16 N/A
7:55 am 07:55 Partly Cloudy 56 13.6 47 8.6 72 72 NW 10 17 30.06 1018 10 16 N/A
8:15 am 08:15 Sunny 58 14.2 47 8.6 69 69 NW 12 19 30.06 1018 10 16 N/A
8:35 am 08:35 Sunny 58 14.6 48 8.8 68 68 NNW 9 15 30.06 1018 10 16 N/A
8:55 am 08:55 Sunny 60 15.5 48 8.7 64 64 NNW 10 17 30.06 1018 10 16 N/A
9:15 am 09:15 Sunny 61 16 47 8.4 61 61 NNW 12 19 30.06 1018 10 16 N/A
9:35 am 09:35 Sunny 62 16.6 47 8.6 59 59 NNW 8 13 30.06 1018 10 16 N/A
9:55 am 09:55 Sunny 63 17.3 47 8.4 56 56 NW 8 13 30.03 1017 10 16 N/A
10:15 am 10:15 Sunny 65 18.3 47 8.1 52 52 NNW 9 15 30.06 1018 10 16 N/A
10:35 am 10:35 Sunny 65 18.5 47 8.5 52 52 NNW 8 13 30.06 1018 10 16 N/A
10:55 am 10:55 Sunny 66 19.1 47 8.5 50 50 NNW 7 11 30.06 1018 10 16 N/A
11:15 am 11:15 Sunny 68 19.9 45 7.2 44 44 N 8 13 30.06 1018 10 16 N/A
11:35 am 11:35 Sunny 69 20.5 44 6.9 41 41 NNW 8 13 30.06 1018 10 16 N/A
11:55 am 11:55 Sunny 70 20.9 43 6 38 38 NW 8 13 30.03 1017 10 16 N/A
12:15 pm 12:15 Sunny 70 21.2 41 5.1 35 35 NNW 10 17 30.03 1017 10 16 N/A
12:35 pm 12:35 Partly Cloudy 71 21.5 40 4.2 32 32 NNW 14 22 30.03 1017 10 16 N/A
12:55 pm 12:55 Mostly Cloudy 71 21.4 38 3.4 31 31 WNW 12 19 30.03 1017 10 16 N/A
1:15 pm 13:15 Partly Cloudy 72 22 39 3.8 30 30 NW 9 15 30.03 1017 10 16 N/A
1:35 pm 13:35 Partly Cloudy 72 22.1 40 4.4 32 32 WNW 7 11 30.00 1016 10 16 N/A
1:55 pm 13:55 Partly Cloudy 72 22.4 36 2.4 27 27 NNW 10 17 30.00 1016 10 16 N/A
2:15 pm 14:15 Partly Cloudy 73 22.7 34 1.1 24 24 WNW 14 22 30.00 1016 10 16 N/A
2:35 pm 14:35 Partly Cloudy 73 22.8 31 -0.4 21 21 WNW 18 30 30.00 1016 10 16 N/A
2:55 pm 14:55 Sunny 73 22.7 30 -1.2 20 20 NNW 10 17 30.00 1016 10 16 N/A
3:15 pm 15:15 Sunny 73 23 33 0.8 23 23 NNW 10 17 30.00 1016 10 16 N/A
3:35 pm 15:35 Sunny 74 23.3 33 0.3 22 22 NNW 14 22 30.00 1016 10 16 N/A
3:55 pm 15:55 Sunny 74 23.1 32 -0.2 21 21 WNW 14 22 30.00 1016 10 16 N/A
4:15 pm 16:15 Sunny 74 23.2 33 0.5 22 22 WNW 14 22 30.00 1016 10 16 N/A
4:35 pm 16:35 Sunny 74 23.1 31 -0.6 21 21 NNW 14 22 30.00 1016 10 16 N/A
4:55 pm 16:55 Sunny 74 23.5 32 undefined 21 21 NW 14 22 29.97 1015 10 16 N/A
5:15 pm 17:15 Sunny 73 22.9 31 -0.3 21 21 NW 14 22 29.97 1015 10 16 N/A
5:35 pm 17:35 Sunny 73 23 31 -0.5 21 21 NNW 12 19 29.97 1015 10 16 N/A
5:55 pm 17:55 Sunny 74 23.1 31 -0.4 21 21 NW 10 17 29.97 1015 10 16 N/A
6:15 pm 18:15 Sunny 73 23 31 -0.5 21 21 N 9 15 29.97 1015 10 16 N/A
6:35 pm 18:35 Sunny 73 22.9 31 -0.6 21 21 NNW 10 17 29.97 1015 10 16 N/A
6:55 pm 18:55 Sunny 73 22.6 31 -0.4 22 22 N 6 9 29.97 1015 10 16 N/A
7:15 pm 19:15 Sunny 73 22.5 31 -0.3 22 22 N 10 17 29.97 1015 10 16 N/A
7:35 pm 19:35 Sunny 72 22.2 31 -0.3 22 22 N 7 11 29.97 1015 10 16 N/A
7:55 pm 19:55 Sunny 71 21.7 33 0.4 24 24 N 10 17 29.97 1015 10 16 N/A
8:15 pm 20:15 Sunny 70 21 34 1.1 27 27 N 9 15 29.97 1015 10 16 N/A
8:35 pm 20:35 Sunny 68 20.1 35 1.4 29 29 NNE 8 13 29.97 1015 10 16 N/A
8:55 pm 20:55 Sunny 64 17.9 36 2 35 35 NNE 8 13 30.00 1016 10 16 N/A
9:15 pm 21:15 Clear 62 16.5 37 2.7 40 40 NE 6 9 30.03 1017 10 16 N/A
9:35 pm 21:35 Clear 61 16.1 38 3.1 42 42 NE 3 6 30.03 1017 10 16 N/A
9:55 pm 21:55 Clear 60 15.6 38 3.6 45 45 ENE 5 7 30.06 1018 10 16 N/A
10:15 pm 22:15 Clear 60 15.4 38 3.6 45 45 ENE 5 7 30.06 1018 10 16 N/A
10:35 pm 22:35 Clear 60 15.3 38 3.6 46 46 ENE 3 6 30.06 1018 10 16 N/A
10:55 pm 22:55 Clear 59 14.9 38 3.4 46 46 N N/A 30.06 1018 10 16 N/A
11:15 pm 23:15 Clear 58 14.2 38 3.6 49 49 ENE 3 6 30.06 1018 10 16 N/A
11:35 pm 23:35 Clear 57 14 39 3.8 50 50 N N/A 30.06 1018 10 16 N/A
11:55 pm 23:55 Clear 55 12.6 39 4 56 56 N N/A 30.09 1019 10 16 N/A

Powered by AerisWeather